Date,TemperatureHighF,TemperatureAvgF,TemperatureLowF,DewpointHighF,DewpointAvgF,DewpointLowF,HumidityHigh,HumidityAvg,HumidityLow,PressureMaxIn,PressureMinIn,WindSpeedMaxMPH,WindSpeedAvgMPH,GustSpeedMaxMPH,PrecipitationSumIn
2012-12-1,66.6,56.7,53.4,57.3,51.4,48.1,89,83,71,30.12,30.06,11,3,11,0.00
2012-12-3,76.3,70.2,64.8,58.9,56.3,53.0,79,62,46,30.00,29.88,17,5,17,0.00
2012-12-4,65.7,54.0,38.5,59.2,49.5,33.3,98,85,65,30.36,29.94,10,3,11,0.46
2012-12-5,66.6,47.1,32.0,47.6,34.7,28.9,98,66,37,30.39,30.12,12,2,12,0.00
2012-12-6,68.0,52.1,40.8,50.8,41.6,31.3,92,68,49,30.12,29.88,8,2,8,0.00
2012-12-7,68.4,56.6,49.3,54.4,51.5,48.6,98,84,58,29.91,29.80,10,1,10,0.00
2012-12-8,59.4,54.2,46.2,54.9,51.4,45.7,98,91,77,29.97,29.85,10,2,10,0.00
2012-12-9,61.9,52.0,40.5,61.3,50.2,33.3,98,94,75,29.91,29.68,17,5,17,0.12
2012-12-10,40.3,29.7,23.7,33.5,19.9,16.6,78,67,54,30.06,29.88,21,6,21,0.00
2012-12-11,50.4,32.0,18.3,27.4,18.9,13.9,91,62,38,30.15,29.97,6,1,6,0.00
2012-12-12,57.7,38.6,23.7,30.1,18.1,10.8,67,45,30,30.24,30.09,10,2,10,0.00
2012-12-13,61.0,43.8,31.6,30.2,21.0,15.2,53,41,29,30.27,30.06,11,3,11,0.00
2012-12-14,57.2,45.3,33.8,39.1,26.6,18.4,77,49,34,30.15,29.83,9,3,9,0.04
2012-12-15,69.3,56.8,45.9,51.9,41.1,31.5,97,60,34,29.83,29.56,15,4,15,0.04
2012-12-16,64.4,52.1,46.4,40.0,34.2,30.9,59,51,38,29.71,29.53,5,1,6,0.00
2012-12-17,53.1,43.2,35.1,39.5,35.1,30.0,88,74,56,29.77,29.59,15,4,15,0.00
2012-12-18,68.2,47.2,30.4,41.9,33.7,27.4,93,64,33,29.77,29.59,12,2,12,0.00
2012-12-19,62.1,51.6,39.9,58.8,44.7,30.1,95,78,62,29.80,29.38,14,4,14,0.21
2012-12-20,59.0,40.6,32.0,58.0,30.1,15.9,98,67,46,30.09,29.35,35,14,35,0.38
2012-12-21,51.4,37.6,30.4,25.3,17.2,12.9,51,44,36,30.24,30.09,25,5,25,0.00
2012-12-22,66.7,44.9,26.4,33.5,21.2,12.7,71,42,24,30.21,29.85,10,2,10,0.00
2012-12-23,67.1,54.4,44.2,45.3,34.6,19.7,78,49,30,29.88,29.65,9,2,9,0.00
2012-12-24,51.8,40.4,29.3,45.5,28.7,18.1,81,64,47,29.94,29.71,20,5,20,0.00
2012-12-25,33.3,29.0,24.1,24.4,19.7,16.1,83,68,60,30.03,29.68,29,9,29,0.00
2012-12-26,42.1,30.7,25.3,23.9,18.6,13.9,75,61,46,30.00,29.77,19,8,23,0.00
2012-12-27,39.0,29.9,21.6,24.7,20.2,13.3,78,67,55,30.03,29.77,12,3,12,0.00
2012-12-28,36.0,33.1,30.2,32.8,28.9,24.0,94,85,77,29.91,29.68,16,4,16,0.03
2012-12-29,38.5,29.8,23.4,25.3,17.2,13.7,76,60,47,30.27,29.88,19,7,19,0.00
2012-12-30,44.6,32.1,20.8,24.1,18.1,13.5,75,58,40,30.39,30.12,14,2,14,0.00
2012-12-31,36.0,34.9,33.1,35.3,31.2,19.4,98,87,54,30.18,29.88,6,1,6,0.71